Granada, Spain

9:02 PM CEST on September 25, 2017 (GMT +0200)
Granada

Weather History for LEGR - September, 2013

Change the Weather History Date:

Sunday, September 15, 2013

  Actual Average Record
Temperature  
Mean Temperature 74 °F -  
Max Temperature 88 °F 77 °F 96 °F (2000)
Min Temperature 60 °F 51 °F 44 °F (2016)
Cooling Degree Days 9    
Growing Degree Days 24 (Base 50)    
Moisture  
Dew Point 59 °F    
Average Humidity 62    
Maximum Humidity 94    
Minimum Humidity 31    
Precipitation  
Precipitation 0.00 in - - ()
Sea Level Pressure  
Sea Level Pressure 30.02 in    
Wind  
Wind Speed 2 mph ()    
Max Wind Speed 13 mph    
Max Gust Speed -    
Visibility 7.4 miles    
Events      
Averages and records for this station are not official NWS values.
T = Trace of Precipitation, MM = Missing Value Source: Averaged Metar Reports

Daily Weather History Graph

Daily Weather History Graph

Search for Another Location

Airport or City:

Trip Planner

Search our weather history database for the weather conditions in past years. The results will help you decide how hot, cold, wet, or windy it might be!

Date:

Astronomy

Sep. 15, 2013 Rise Set
Actual Time 7:57 AM CEST 8:22 PM CEST
Civil Twilight 7:31 AM CEST 8:48 PM CEST
Nautical Twilight 7:00 AM CEST 9:19 PM CEST
Astronomical Twilight 6:29 AM CEST 9:50 PM CEST
Moon 5:35 PM CEST (9/15) 3:24 AM CEST (9/15)
Length of Visible Light 13h 17m
Length of Day
12h 25m
Waxing Gibbous, 79% of the Moon is Illuminated
Sep 15
Waxing Gibbous
Sep 19
Full
Sep 27
Last Quarter
Oct 5
New
Oct 12
First Quarter

Hourly Weather History & Observations

Time (CEST) Temp. Heat Index Dew Point Humidity Pressure Visibility Wind Dir Wind Speed Gust Speed Precip Events Conditions
2:00 AM 67 °F - 61 °F 77% 30.06 in 12 mi Calm Calm - -  
6:00 AM 62.6 °F - 59.0 °F 88% 30.06 in 6.2 mi Variable 1.2 mph - N/A   Partly Cloudy
6:30 AM 60.8 °F - 59.0 °F 94% 30.06 in - Calm Calm - N/A   Clear
7:00 AM 60.8 °F - 59.0 °F 94% 30.06 in - Calm Calm - N/A   Clear
7:30 AM 60.8 °F - 59.0 °F 94% 30.06 in - Calm Calm - N/A   Clear
8:00 AM 60 °F - 57 °F 86% 30.05 in 9 mi Calm Calm - -   Clear
8:00 AM 60.8 °F - 59.0 °F 94% 30.06 in - Calm Calm - N/A   Clear
8:30 AM 60.8 °F - 59.0 °F 94% 30.06 in - Variable 1.2 mph - N/A   Clear
9:00 AM 62.6 °F - 60.8 °F 94% 30.06 in - Variable 1.2 mph - N/A   Clear
9:30 AM 64.4 °F - 60.8 °F 88% 30.06 in - Calm Calm - N/A   Clear
10:00 AM 66.2 °F - 62.6 °F 88% 30.06 in 6.2 mi Variable 1.2 mph - N/A   Partly Cloudy
10:30 AM 68.0 °F - 62.6 °F 83% 30.06 in 6.2 mi Variable 1.2 mph - N/A   Partly Cloudy
11:00 AM 71.6 °F - 62.6 °F 73% 30.06 in 6.2 mi Variable 2.3 mph - N/A   Partly Cloudy
11:30 AM 71.6 °F - 62.6 °F 73% 30.06 in 6.2 mi WNW 3.5 mph - N/A   Partly Cloudy
12:00 PM 75.2 °F - 62.6 °F 65% 30.06 in 6.2 mi Variable 1.2 mph - N/A   Partly Cloudy
12:30 PM 77.0 °F - 62.6 °F 61% 30.06 in 6.2 mi Variable 2.3 mph - N/A   Partly Cloudy
1:00 PM 78.8 °F - 62.6 °F 57% 30.06 in 6.2 mi Variable 2.3 mph - N/A   Partly Cloudy
1:30 PM 82.4 °F 82.9 °F 60.8 °F 48% 30.06 in 6.2 mi Calm Calm - N/A   Partly Cloudy
2:00 PM 82 °F - 59 °F 36% 29.93 in 19 mi NW 1.2 mph - -   Scattered Clouds
2:00 PM 82.4 °F 82.9 °F 60.8 °F 48% 30.04 in 6.2 mi Calm Calm - N/A   Partly Cloudy
2:30 PM 82.4 °F 82.9 °F 60.8 °F 48% 30.04 in 6.2 mi Variable 1.2 mph - N/A   Partly Cloudy
3:00 PM 84.2 °F 84.4 °F 60.8 °F 45% 30.01 in 6.2 mi Variable 1.2 mph - N/A   Partly Cloudy
3:30 PM 86.0 °F 84.9 °F 57.2 °F 37% 30.01 in 6.2 mi Variable 3.5 mph - N/A   Partly Cloudy
4:00 PM 86.0 °F 84.5 °F 55.4 °F 35% 29.98 in 6.2 mi WNW 5.8 mph - N/A   Partly Cloudy
4:30 PM 87.8 °F 85.7 °F 53.6 °F 31% 29.98 in 6.2 mi Variable 3.5 mph - N/A   Partly Cloudy
5:00 PM 84.2 °F 83.8 °F 59.0 °F 42% 29.98 in 6.2 mi WNW 6.9 mph - N/A   Partly Cloudy
5:30 PM 86.0 °F 85.4 °F 59.0 °F 40% 29.98 in 6.2 mi West 8.1 mph - N/A   Partly Cloudy
6:00 PM 86.0 °F 85.4 °F 59.0 °F 40% 29.98 in 6.2 mi North 5.8 mph - N/A   Partly Cloudy
6:30 PM 87.8 °F 86.5 °F 57.2 °F 35% 29.98 in 6.2 mi Variable 4.6 mph - N/A   Partly Cloudy
7:00 PM 86.0 °F 84.9 °F 57.2 °F 37% 29.98 in 6.2 mi North 4.6 mph - N/A   Partly Cloudy
7:30 PM 82.4 °F 82.0 °F 57.2 °F 42% 29.98 in 6.2 mi ESE 12.7 mph - N/A   Partly Cloudy
8:00 PM 80 °F - 57 °F 35% 29.89 in 19 mi ESE 10.4 mph - -   Scattered Clouds
8:00 PM 80.6 °F 80.8 °F 57.2 °F 45% 29.98 in 6.2 mi ESE 10.4 mph - N/A   Partly Cloudy
8:30 PM 78.8 °F - 57.2 °F 47% 30.01 in 6.2 mi SE 3.5 mph - N/A   Partly Cloudy
9:00 PM 77.0 °F - 59.0 °F 54% 30.01 in 6.2 mi Variable 2.3 mph - N/A   Partly Cloudy
9:30 PM 73.4 °F - 59.0 °F 61% 30.01 in - Variable 1.2 mph - N/A   Clear
10:00 PM 71.6 °F - 59.0 °F 64% 30.01 in - Calm Calm - N/A   Clear
10:30 PM 71.6 °F - 60.8 °F 69% 30.04 in - Calm Calm - N/A   Clear
11:00 PM 69.8 °F - 60.8 °F 73% 30.04 in - Calm Calm - N/A   Clear